When you browse on this site, cookies collect data to enhance your experience and personalize the content and advertising you see.
Visit our Privacy Policy to learn more. By continuing to use the site, you agree to this use of cookies and data.
  • In Latvia
  • List of Countries
  • For 7 days
  • Water Temperature
  • Weather Map
  • Weather Widgets
  • user-avatar
    Login

    Hourly Weather Oktyabrskiy

    Today, 8 April, Wednesday

    Time Temperature Precipitation Wind Pressure Humidity
    00:00 +7°C° 0 mm 1 mps 723 mmHg 79%
    01:00 +7°C° 0 mm 1 mps 723 mmHg 80%
    02:00 +6°C° 0 mm 1 mps 723 mmHg 80%
    03:00 +6°C° 0 mm 1 mps 723 mmHg 81%
    04:00 +7°C° 0 mm 1 mps 723 mmHg 81%
    05:00 +7°C° 0 mm 1 mps 724 mmHg 81%
    06:00 +6°C° 0 mm 0 mps 724 mmHg 82%
    07:00 +7°C° 0.7 mm 1 mps 725 mmHg 87%
    08:00 +6°C° 0.7 mm 1 mps 725 mmHg 92%
    09:00 +4°C° 0.7 mm 2 mps 726 mmHg 97%
    10:00 +4°C° 0.2 mm 2 mps 726 mmHg 96%
    11:00 +4°C° 0.2 mm 2 mps 726 mmHg 95%
    12:00 +4°C° 0 mm 2 mps 726 mmHg 92%
    13:00 +4°C° 0.6 mm 2 mps 726 mmHg 94%
    14:00 +4°C° 0.6 mm 2 mps 726 mmHg 95%
    15:00 +4°C° 0.6 mm 1 mps 726 mmHg 96%
    16:00 +4°C° 0.7 mm 1 mps 726 mmHg 96%
    17:00 +4°C° 0.7 mm 1 mps 726 mmHg 96%
    18:00 +4°C° 0.7 mm 1 mps 726 mmHg 96%
    19:00 +4°C° 1.1 mm 1 mps 726 mmHg 96%
    20:00 +4°C° 1.1 mm 1 mps 726 mmHg 96%
    21:00 +4°C° 1.1 mm 1 mps 727 mmHg 97%
    22:00 +3°C° 0.6 mm 0 mps 726 mmHg 97%
    23:00 +4°C° 0.6 mm 0 mps 726 mmHg 97%

    Tomorrow, 9 April, Thursday

    Time Temperature Precipitation Wind Pressure Humidity
    00:00 +4°C° 0.6 mm 0 mps 726 mmHg 97%
    01:00 +5°C° 0.3 mm 1 mps 726 mmHg 96%
    02:00 +4°C° 0.3 mm 1 mps 725 mmHg 96%
    03:00 +4°C° 0.3 mm 1 mps 725 mmHg 96%
    04:00 +4°C° 0.2 mm 1 mps 725 mmHg 96%
    05:00 +4°C° 0.2 mm 1 mps 725 mmHg 96%
    06:00 +3°C° 0.2 mm 2 mps 725 mmHg 96%
    07:00 +3°C° 0.2 mm 2 mps 725 mmHg 96%
    08:00 +3°C° 0.2 mm 2 mps 725 mmHg 95%
    09:00 +3°C° 0.2 mm 2 mps 725 mmHg 95%
    10:00 +2°C° 0.2 mm 3 mps 726 mmHg 95%
    11:00 +2°C° 0.2 mm 3 mps 726 mmHg 95%
    12:00 +2°C° 0.2 mm 3 mps 726 mmHg 95%
    13:00 +2°C° 1.1 mm 3 mps 727 mmHg 96%
    14:00 +1°C° 1.1 mm 3 mps 727 mmHg 97%
    15:00 +1°C° 1.1 mm 3 mps 728 mmHg 98%
    16:00 0°C° 1 mm 4 mps 729 mmHg 97%
    17:00 0°C° 1 mm 4 mps 729 mmHg 97%
    18:00 0°C° 1 mm 5 mps 730 mmHg 97%
    19:00 0°C° 0.6 mm 5 mps 731 mmHg 97%
    20:00 0°C° 0.6 mm 5 mps 732 mmHg 96%
    21:00 -2°C° 0.6 mm 6 mps 733 mmHg 95%
    22:00 -1°C° 0.3 mm 5 mps 734 mmHg 95%
    23:00 -1°C° 0.3 mm 5 mps 735 mmHg 94%

    Day after tomorrow, 10 April, Friday

    Time Temperature Precipitation Wind Pressure Humidity
    00:00 -1°C° 0.3 mm 5 mps 735 mmHg 94%
    01:00 -1°C° 0.1 mm 4 mps 735 mmHg 93%
    02:00 -1°C° 0.1 mm 3 mps 736 mmHg 93%
    03:00 -1°C° 0.1 mm 2 mps 736 mmHg 92%
    04:00 -1°C° 0 mm 2 mps 736 mmHg 92%
    05:00 -2°C° 0 mm 2 mps 737 mmHg 91%
    06:00 -2°C° 0 mm 2 mps 737 mmHg 90%
    07:00 +1°C° 0 mm 1 mps 737 mmHg 89%
    08:00 +2°C° 0 mm 1 mps 737 mmHg 88%
    09:00 +2°C° 0 mm 1 mps 737 mmHg 87%
    10:00 +3°C° 0 mm 1 mps 736 mmHg 87%
    11:00 +3°C° 0 mm 1 mps 736 mmHg 87%
    12:00 +3°C° 0 mm 0 mps 736 mmHg 87%
    13:00 +3°C° 0 mm 0 mps 735 mmHg 86%
    14:00 +5°C° 0 mm 1 mps 735 mmHg 86%
    15:00 +5°C° 0 mm 1 mps 734 mmHg 85%
    16:00 +5°C° 0 mm 1 mps 734 mmHg 85%
    17:00 +4°C° 0 mm 1 mps 734 mmHg 86%
    18:00 +3°C° 0 mm 0 mps 734 mmHg 86%
    19:00 +2°C° 0 mm 0 mps 734 mmHg 87%
    20:00 +1°C° 0 mm 0 mps 734 mmHg 88%
    21:00 0°C° 0 mm 0 mps 734 mmHg 90%
    22:00 0°C° 0 mm 0 mps 733 mmHg 89%
    23:00 0°C° 0 mm 0 mps 733 mmHg 89%

    11 April, Saturday

    Time Temperature Precipitation Wind Pressure Humidity
    00:00 0°C° 0 mm 0 mps 733 mmHg 89%
    01:00 0°C° 0 mm 0 mps 733 mmHg 88%
    02:00 0°C° 0 mm 0 mps 732 mmHg 87%
    03:00 0°C° 0 mm 0 mps 732 mmHg 87%
    04:00 0°C° 0 mm 0 mps 732 mmHg 85%
    05:00 0°C° 0 mm 0 mps 732 mmHg 83%
    06:00 0°C° 0 mm 0 mps 733 mmHg 82%
    07:00 +1°C° 0 mm 0 mps 732 mmHg 81%
    08:00 +2°C° 0 mm 0 mps 732 mmHg 80%
    09:00 +3°C° 0 mm 0 mps 732 mmHg 79%
    10:00 +5°C° 0 mm 1 mps 732 mmHg 76%
    11:00 +6°C° 0 mm 1 mps 732 mmHg 74%
    12:00 +7°C° 0 mm 1 mps 731 mmHg 71%
    13:00 +8°C° 0 mm 1 mps 731 mmHg 69%
    14:00 +8°C° 0 mm 1 mps 731 mmHg 67%
    15:00 +9°C° 0 mm 1 mps 730 mmHg 64%
    16:00 +9°C° 0 mm 1 mps 730 mmHg 66%
    17:00 +8°C° 0 mm 1 mps 730 mmHg 67%
    18:00 +8°C° 0 mm 1 mps 730 mmHg 69%
    19:00 +7°C° 0 mm 1 mps 730 mmHg 71%
    20:00 +6°C° 0 mm 1 mps 730 mmHg 73%
    21:00 +5°C° 0 mm 1 mps 730 mmHg 75%
    22:00 +5°C° 0 mm 1 mps 730 mmHg 74%
    23:00 +5°C° 0 mm 1 mps 730 mmHg 74%

    12 April, Sunday

    Time Temperature Precipitation Wind Pressure Humidity
    00:00 +3°C° 0 mm 0 mps 730 mmHg 73%
    01:00 +3°C° 0 mm 0 mps 729 mmHg 73%
    02:00 +3°C° 0 mm 0 mps 729 mmHg 73%
    03:00 +3°C° 0 mm 0 mps 729 mmHg 73%
    04:00 +3°C° 0 mm 0 mps 729 mmHg 73%
    05:00 +3°C° 0 mm 0 mps 728 mmHg 73%
    06:00 +3°C° 0 mm 0 mps 728 mmHg 74%
    07:00 +4°C° 0 mm 0 mps 728 mmHg 71%
    08:00 +6°C° 0 mm 1 mps 728 mmHg 69%
    09:00 +8°C° 0 mm 1 mps 728 mmHg 67%
    10:00 +9°C° 0 mm 1 mps 727 mmHg 64%
    11:00 +10°C° 0 mm 1 mps 727 mmHg 61%
    12:00 +11°C° 0 mm 1 mps 727 mmHg 58%
    13:00 +12°C° 0 mm 1 mps 726 mmHg 56%
    14:00 +13°C° 0 mm 1 mps 726 mmHg 54%
    15:00 +13°C° 0 mm 1 mps 726 mmHg 53%
    16:00 +13°C° 0 mm 1 mps 725 mmHg 56%
    17:00 +12°C° 0 mm 1 mps 725 mmHg 58%
    18:00 +10°C° 0 mm 0 mps 725 mmHg 61%
    19:00 +10°C° 0 mm 1 mps 724 mmHg 63%
    20:00 +9°C° 0 mm 1 mps 724 mmHg 64%
    21:00 +8°C° 0 mm 1 mps 724 mmHg 65%
    22:00 +8°C° 0 mm 1 mps 724 mmHg 65%
    23:00 +8°C° 0 mm 1 mps 724 mmHg 65%

    13 April, Monday

    Time Temperature Precipitation Wind Pressure Humidity
    00:00 +7°C° 0 mm 1 mps 723 mmHg 64%
    01:00 +7°C° 0 mm 1 mps 723 mmHg 65%
    02:00 +7°C° 0 mm 1 mps 723 mmHg 65%
    03:00 +7°C° 0 mm 1 mps 722 mmHg 66%
    04:00 +7°C° 0 mm 1 mps 722 mmHg 66%
    05:00 +7°C° 0 mm 1 mps 722 mmHg 67%
    06:00 +7°C° 0 mm 1 mps 721 mmHg 67%
    07:00 +8°C° 0 mm 1 mps 721 mmHg 64%
    08:00 +9°C° 0 mm 1 mps 721 mmHg 61%
    09:00 +11°C° 0 mm 1 mps 721 mmHg 58%
    10:00 +11°C° 0 mm 1 mps 721 mmHg 57%
    11:00 +12°C° 0 mm 1 mps 721 mmHg 56%
    12:00 +13°C° 0 mm 1 mps 721 mmHg 55%
    13:00 +12°C° 0.1 mm 1 mps 721 mmHg 59%
    14:00 +11°C° 0.1 mm 1 mps 721 mmHg 64%
    15:00 +11°C° 0.1 mm 1 mps 721 mmHg 68%
    16:00 +10°C° 0.2 mm 1 mps 721 mmHg 73%
    17:00 +10°C° 0.2 mm 1 mps 721 mmHg 77%
    18:00 +9°C° 0.2 mm 1 mps 722 mmHg 82%
    19:00 +9°C° 0.4 mm 1 mps 722 mmHg 86%
    20:00 +9°C° 0.4 mm 1 mps 722 mmHg 90%
    21:00 +9°C° 0.4 mm 1 mps 723 mmHg 94%
    22:00 +9°C° 0.1 mm 1 mps 723 mmHg 94%
    23:00 +8°C° 0.1 mm 0 mps 723 mmHg 95%
    Show more